Weather History for KTYQ - November, 2011

Change the Weather History Date:

Sunday, November 20, 2011

  Actual Average (KEYE) Record (KEYE)
Temperature  
Mean Temperature 51 °F 42 °F  
Max Temperature 60 °F 50 °F 64 °F (2007)
Min Temperature 42 °F 35 °F 18 °F (2014)
Degree Days  
Heating Degree Days 14 23  
Month to date heating degree days 377  
Since 1 July heating degree days 769  
Cooling Degree Days 0 0  
Month to date cooling degree days 0  
Year to date cooling degree days 1058  
Growing Degree Days 1 (Base 50)    
Moisture  
Dew Point 44 °F    
Average Humidity 79    
Maximum Humidity 87    
Minimum Humidity 67    
Precipitation  
Precipitation 0.00 in 0.13 in 0.09 in (2011)
Month to date precipitation 2.48  
Year to date precipitation 36.49  
Sea Level Pressure  
Sea Level Pressure 30.14 in    
Wind  
Wind Speed 12 mph (North)    
Max Wind Speed 23 mph    
Max Gust Speed 29 mph    
Visibility 10 miles    
Events Rain    
T = Trace of Precipitation, MM = Missing Value Source: NWS Daily Summary

Daily Weather History Graph

Daily Weather History Graph

Search for Another Location

Airport or City:

Trip Planner

Search our weather history database for the weather conditions in past years. The results will help you decide how hot, cold, wet, or windy it might be!

Date:

Astronomy

Nov. 20, 2011 Rise Set
Actual Time 7:35 AM EST 5:25 PM EST
Civil Twilight 7:06 AM EST 5:54 PM EST
Nautical Twilight 6:33 AM EST 6:27 PM EST
Astronomical Twilight 6:01 AM EST 6:59 PM EST
Moon 2:03 AM EST (11/20) 2:13 PM EST (11/20)
Length of Visible Light 10h 48m
Length of Day
9h 49m
Waning Crescent, 27% of the Moon is Illuminated
Nov 20
Waning Crescent
Nov 25
New
Dec 2
First Quarter
Dec 10
Full
Dec 17
Last Quarter

Hourly Weather History & Observations

Time (EST) Temp. Windchill Dew Point Humidity Pressure Visibility Wind Dir Wind Speed Gust Speed Precip Events Conditions
12:15 AM 60.4 °F - 49.5 °F 67% 29.96 in 10.0 mi SSW 17.3 mph 27.6 mph N/A   Overcast
12:35 AM 60.8 °F - 49.6 °F 67% 29.97 in 10.0 mi SSW 18.4 mph 27.6 mph N/A   Overcast
12:55 AM 60.8 °F - 50.0 °F 68% 29.97 in 10.0 mi SW 19.6 mph 28.8 mph N/A   Overcast
1:15 AM 60.4 °F - 50.2 °F 69% 29.98 in 10.0 mi SW 23.0 mph 28.8 mph N/A   Overcast
1:35 AM 60.4 °F - 50.4 °F 69% 29.98 in 10.0 mi SW 20.7 mph 26.5 mph N/A   Overcast
1:55 AM 60.6 °F - 50.7 °F 70% 29.99 in 10.0 mi SW 19.6 mph 24.2 mph N/A   Overcast
2:15 AM 60.6 °F - 50.9 °F 70% 30.00 in 10.0 mi SW 15.0 mph 23.0 mph N/A   Overcast
2:35 AM 60.3 °F - 50.9 °F 71% 30.01 in 10.0 mi SW 16.1 mph 23.0 mph N/A   Overcast
2:55 AM 59.9 °F - 51.3 °F 73% 30.03 in 10.0 mi SW 15.0 mph 21.9 mph N/A Rain Light Rain
3:15 AM 59.0 °F - 51.8 °F 77% 30.03 in 10.0 mi SW 13.8 mph 19.6 mph N/A   Overcast
3:35 AM 58.1 °F - 51.8 °F 80% 30.03 in 10.0 mi SW 15.0 mph - N/A   Overcast
3:55 AM 57.4 °F - 51.6 °F 81% 30.03 in 10.0 mi SW 13.8 mph 18.4 mph N/A   Overcast
4:15 AM 57.9 °F - 51.6 °F 80% 30.04 in 10.0 mi SW 16.1 mph 20.7 mph N/A   Overcast
4:35 AM 57.2 °F - 51.8 °F 82% 30.04 in 10.0 mi SW 15.0 mph - N/A   Overcast
5:15 AM 57.2 °F - 51.8 °F 82% 30.04 in 10.0 mi SW 12.7 mph - N/A   Overcast
5:35 AM 56.7 °F - 52.0 °F 84% 30.06 in 10.0 mi SW 10.4 mph - N/A   Overcast
5:55 AM 56.8 °F - 52.2 °F 84% 30.06 in 10.0 mi SW 13.8 mph - N/A   Overcast
6:15 AM 56.7 °F - 52.2 °F 85% 30.07 in 10.0 mi SW 9.2 mph - N/A   Overcast
6:55 AM 56.7 °F - 52.7 °F 87% 30.09 in 10.0 mi WSW 9.2 mph - N/A   Overcast
7:35 AM 53.1 °F - 48.0 °F 83% 30.12 in 10.0 mi NW 9.2 mph - N/A   Overcast
7:55 AM 52.0 °F - 47.1 °F 83% 30.13 in 10.0 mi NNW 9.2 mph - N/A   Overcast
8:15 AM 50.9 °F - 45.7 °F 82% 30.14 in 10.0 mi NW 9.2 mph - N/A   Overcast
8:55 AM 48.7 °F - 43.3 °F 82% 30.16 in 10.0 mi NNW 8.1 mph - N/A   Overcast
9:15 AM 48.4 °F - 43.3 °F 83% 30.17 in 10.0 mi NNW 8.1 mph - N/A   Overcast
9:35 AM 48.0 °F - 43.0 °F 83% 30.17 in 10.0 mi NNW 8.1 mph - N/A   Overcast
9:55 AM 48.0 °F - 42.8 °F 82% 30.18 in 10.0 mi NNW 6.9 mph - N/A   Overcast
10:15 AM 48.2 °F - 42.8 °F 82% 30.18 in 10.0 mi NNW 5.8 mph - N/A   Overcast
10:35 AM 48.2 °F - 42.4 °F 80% 30.18 in 10.0 mi NNW 4.6 mph - N/A   Overcast
10:55 AM 48.2 °F - 42.4 °F 80% 30.19 in 10.0 mi NNW 5.8 mph - N/A   Overcast
11:15 AM 47.8 °F - 42.3 °F 81% 30.18 in 10.0 mi NNE 3.5 mph - N/A   Overcast
11:35 AM 48.2 °F - 42.4 °F 80% 30.19 in 10.0 mi North 5.8 mph - N/A   Overcast
11:55 AM 48.4 °F - 43.0 °F 82% 30.16 in 7.0 mi Calm Calm - N/A Rain Light Rain
12:15 PM 48.6 °F - 42.8 °F 80% 30.16 in 7.0 mi Calm Calm - N/A   Overcast
1:15 PM 48.7 °F - 42.8 °F 80% 30.16 in 7.0 mi NE 4.6 mph - N/A   Light Drizzle
1:55 PM 48.9 °F - 42.8 °F 79% 30.16 in 7.0 mi North 8.1 mph - N/A   Overcast
2:15 PM 48.4 °F - 42.8 °F 81% 30.16 in 10.0 mi North 9.2 mph - N/A   Overcast
2:35 PM 48.2 °F - 42.4 °F 80% 30.16 in 10.0 mi North 8.1 mph - N/A   Overcast
2:55 PM 47.8 °F - 42.3 °F 81% 30.16 in 7.0 mi NNE 3.5 mph - N/A   Overcast
3:15 PM 47.7 °F - 42.8 °F 83% 30.16 in 5.0 mi NE 6.9 mph - N/A   Drizzle
3:35 PM 47.3 °F - 43.7 °F 87% 30.16 in 5.0 mi NNE 6.9 mph - N/A   Overcast
3:55 PM 47.5 °F - 43.3 °F 86% 30.18 in 7.0 mi North 9.2 mph - N/A   Overcast
4:15 PM 47.3 °F - 42.8 °F 84% 30.17 in 10.0 mi NNE 9.2 mph - N/A   Overcast
4:35 PM 47.3 °F - 42.1 °F 82% 30.18 in 10.0 mi NNE 5.8 mph - N/A   Overcast
4:55 PM 47.3 °F - 41.4 °F 80% 30.19 in 10.0 mi North 8.1 mph - N/A   Overcast
5:15 PM 47.3 °F - 40.5 °F 77% 30.19 in 10.0 mi NNE 10.4 mph - N/A   Overcast
5:35 PM 47.3 °F - 39.7 °F 75% 30.21 in 10.0 mi NNE 6.9 mph - N/A   Overcast
5:55 PM 46.8 °F - 39.2 °F 75% 30.21 in 10.0 mi North 6.9 mph - N/A   Overcast
6:15 PM 46.4 °F 40.7 °F 39.0 °F 75% 30.22 in 10.0 mi North 12.7 mph - N/A   Overcast
6:35 PM 46.0 °F 40.6 °F 38.7 °F 75% 30.22 in 10.0 mi NNE 11.5 mph - N/A   Overcast
6:55 PM 45.9 °F 41.2 °F 38.7 °F 76% 30.24 in 10.0 mi North 9.2 mph - N/A   Overcast
7:15 PM 45.7 °F 40.6 °F 38.5 °F 76% 30.24 in 10.0 mi NNE 10.4 mph - N/A   Overcast
7:35 PM 45.7 °F 39.8 °F 38.7 °F 76% 30.24 in 10.0 mi NNE 12.7 mph 16.1 mph N/A   Overcast
7:55 PM 45.5 °F 39.9 °F 38.5 °F 76% 30.25 in 10.0 mi NNE 11.5 mph - N/A   Overcast
8:15 PM 45.1 °F 39.9 °F 38.5 °F 77% 30.23 in 10.0 mi NNE 10.4 mph - N/A   Overcast
8:35 PM 44.8 °F 38.7 °F 37.8 °F 76% 30.24 in 10.0 mi NNE 12.7 mph - N/A   Overcast
8:55 PM 44.6 °F 40.2 °F 37.4 °F 76% 30.24 in 10.0 mi NNE 8.1 mph - N/A   Overcast
9:15 PM 44.1 °F 38.6 °F 37.0 °F 76% 30.23 in 10.0 mi NE 10.4 mph - N/A   Overcast
9:35 PM 43.7 °F 41.1 °F 37.4 °F 78% 30.23 in 10.0 mi ENE 4.6 mph - N/A   Light Drizzle
9:55 PM 43.7 °F 39.7 °F 37.4 °F 78% 30.22 in 10.0 mi ENE 6.9 mph - N/A Rain Light Rain
10:15 PM 43.0 °F 39.5 °F 36.7 °F 78% 30.22 in 10.0 mi ENE 5.8 mph - N/A   Mostly Cloudy
10:35 PM 42.1 °F 39.2 °F 36.5 °F 81% 30.23 in 10.0 mi North 4.6 mph - N/A   Mostly Cloudy
10:55 PM 42.8 °F 39.3 °F 37.0 °F 80% 30.23 in 10.0 mi NNE 5.8 mph - N/A   Overcast
11:15 PM 43.0 °F 39.5 °F 37.4 °F 81% 30.23 in 10.0 mi NE 5.8 mph - N/A   Overcast
11:35 PM 43.0 °F 40.3 °F 37.4 °F 81% 30.22 in 10.0 mi NE 4.6 mph - N/A   Overcast
11:55 PM 43.2 °F 39.7 °F 37.6 °F 81% 30.23 in 10.0 mi NE 5.8 mph - N/A   Overcast